YN1ZSC-13 Weather Reports


time (UTC)temp
C
wind
direction
speed
KPH
gust
KPH
rain 1hr
cm
rain 24hr
cm
rain mn
cm
humidity
%
barometer
mb
20260507111735 25 140 8.0 0.0 0.00 0.00 0.00 71 1011.0
20260507110734 25 140 9.7 0.0 0.00 0.00 0.00 72 1011.0
20260507105733 22 96 17.7 38.6 0.00 0.00 0.00 67 1011.0
20260507104733 23 96 17.7 38.6 0.00 0.00 0.00 67 1011.0
20260507103732 23 96 17.7 38.6 0.00 0.00 0.00 65 1011.0
20260507102732 23 96 17.7 38.6 0.00 0.00 0.00 66 1011.0
20260507101731 23 96 17.7 38.6 0.00 0.00 0.00 63 1011.0
20260507100731 23 96 17.7 38.6 0.00 0.00 0.00 63 1011.0
20260507095730 23 96 17.7 38.6 0.00 0.00 0.00 63 1011.0
20260507094729 24 96 17.7 38.6 0.00 0.00 0.00 63 1011.0
20260507093729 25 96 17.7 38.6 0.00 0.00 0.00 63 1011.0
20260507092728 23 90 20.9 33.8 0.00 0.00 0.00 64 1011.0
20260507091727 23 90 20.9 33.8 0.00 0.00 0.00 64 1011.0
20260507090727 23 90 20.9 33.8 0.00 0.00 0.00 64 1011.0
20260507085726 23 90 20.9 33.8 0.00 0.00 0.00 64 1011.0
20260507084725 24 90 20.9 33.8 0.00 0.00 0.00 64 1011.0
20260507083725 25 90 20.9 33.8 0.00 0.00 0.00 64 1011.0
20260507082724 25 90 20.9 33.8 0.00 0.00 0.00 64 1011.0
20260507081724 23 92 24.1 35.4 0.00 0.00 0.00 65 1011.0
20260507080723 23 92 24.1 35.4 0.00 0.00 0.00 65 1011.0
20260507075723 23 92 24.1 35.4 0.00 0.00 0.00 67 1011.0
20260507074722 23 103 17.7 29.0 0.00 0.00 0.00 63 1011.0
20260507073722 24 103 17.7 29.0 0.00 0.00 0.00 63 1011.0
20260507072721 25 103 17.7 29.0 0.00 0.00 0.00 63 1012.0
20260507071720 25 103 17.7 29.0 0.00 0.00 0.00 63 1012.0
20260507070704 26 103 17.7 29.0 0.00 0.00 0.00 63 1012.0
20260507065703 26 103 17.7 29.0 0.00 0.00 0.00 63 1012.0
20260507064702 26 103 17.7 29.0 0.00 0.00 0.00 63 1012.0
20260507063702 26 103 17.7 29.0 0.00 0.00 0.00 63 1012.0
20260507062701 27 103 17.7 29.0 0.00 0.00 0.00 63 1012.0
20260507061701 24 130 17.7 0.0 0.00 0.00 0.00 61 1012.0
20260507060700 24 130 17.7 0.0 0.00 0.00 0.00 61 1012.0
20260507055700 25 130 17.7 0.0 0.00 0.00 0.00 61 1012.0
20260507054659 25 130 17.7 0.0 0.00 0.00 0.00 61 1012.0
20260507053658 25 130 17.7 0.0 0.00 0.00 0.00 61 1012.0
20260507052658 26 130 17.7 0.0 0.00 0.00 0.00 61 1012.0
20260507051657 26 130 17.7 0.0 0.00 0.00 0.00 61 1012.0
20260507050657 27 130 17.7 0.0 0.00 0.00 0.00 61 1012.0
20260507045656 27 130 17.7 0.0 0.00 0.00 0.00 61 1012.0
20260507044655 27 130 17.7 0.0 0.00 0.00 0.00 61 1012.0
20260507043655 27 130 17.7 0.0 0.00 0.00 0.00 60 1012.0
20260507042655 27 130 17.7 0.0 0.00 0.00 0.00 59 1012.0
20260507041654 28 130 17.7 0.0 0.00 0.00 0.00 58 1012.0
20260507040653 28 110 8.0 0.0 0.00 0.00 0.00 56 1012.0
20260507035652 28 110 8.0 0.0 0.00 0.00 0.00 56 1012.0
20260507034652 26 104 20.9 38.6 0.00 0.00 0.00 50 1012.0
20260507033651 26 104 20.9 38.6 0.00 0.00 0.00 50 1012.0
20260507032651 27 104 20.9 38.6 0.00 0.00 0.00 50 1012.0
20260507031650 27 104 20.9 38.6 0.00 0.00 0.00 50 1012.0
20260507030649 28 104 20.9 38.6 0.00 0.00 0.00 50 1012.0
20260507025649 27 104 20.9 38.6 0.00 0.00 0.00 48 1012.0
20260507024647 27 104 20.9 38.6 0.00 0.00 0.00 46 1012.0
20260507023647 27 104 20.9 38.6 0.00 0.00 0.00 46 1012.0
20260507022646 27 104 20.9 38.6 0.00 0.00 0.00 46 1011.0
20260507021646 27 104 20.9 38.6 0.00 0.00 0.00 46 1011.0
20260507020645 27 104 20.9 38.6 0.00 0.00 0.00 46 1011.0
20260507015645 27 104 20.9 38.6 0.00 0.00 0.00 46 1011.0
20260507014644 28 104 20.9 38.6 0.00 0.00 0.00 46 1010.0
20260507013643 28 104 20.9 38.6 0.00 0.00 0.00 46 1010.0
20260507012643 29 104 20.9 38.6 0.00 0.00 0.00 46 1009.0
20260507011642 30 104 20.9 38.6 0.00 0.00 0.00 46 1009.0
20260507010642 30 104 20.9 38.6 0.00 0.00 0.00 46 1009.0
20260507005641 34 120 17.7 0.0 0.00 0.00 0.00 43 1009.0
20260507004640 34 120 17.7 0.0 0.00 0.00 0.00 43 1009.0
20260507003640 33 120 17.7 0.0 0.00 0.00 0.00 43 1009.0
20260507002639 34 120 17.7 0.0 0.00 0.00 0.00 43 1009.0
20260507001639 28 107 29.0 29.0 0.00 0.00 0.00 38 1009.0
20260507000638 29 107 29.0 29.0 0.00 0.00 0.00 37 1009.0
20260506235638 30 107 29.0 29.0 0.00 0.00 0.00 36 1009.0
20260506234637 30 107 29.0 29.0 0.00 0.00 0.00 36 1008.0
20260506233636 30 107 29.0 29.0 0.00 0.00 0.00 36 1008.0
20260506232636 30 107 29.0 29.0 0.00 0.00 0.00 36 1008.0
20260506231635 30 107 29.0 29.0 0.00 0.00 0.00 35 1008.0
20260506230635 30 107 29.0 29.0 0.00 0.00 0.00 35 1008.0
20260506225634 31 107 29.0 29.0 0.00 0.00 0.00 35 1008.0
20260506224633 31 107 29.0 29.0 0.00 0.00 0.00 35 1008.0
20260506223633 31 107 29.0 29.0 0.00 0.00 0.00 35 1008.0
20260506222632 32 107 29.0 29.0 0.00 0.00 0.00 34 1008.0
20260506221631 32 107 29.0 29.0 0.00 0.00 0.00 34 1008.0
20260506220631 33 107 29.0 29.0 0.00 0.00 0.00 34 1008.0
20260506215625 33 107 29.0 29.0 0.00 0.00 0.00 33 1008.0
20260506214625 34 107 29.0 29.0 0.00 0.00 0.00 33 1008.0
20260506213624 35 107 29.0 29.0 0.00 0.00 0.00 33 1008.0
20260506212623 35 107 29.0 29.0 0.00 0.00 0.00 33 1008.0
20260506211623 36 107 29.0 29.0 0.00 0.00 0.00 33 1008.0
20260506210622 36 110 20.9 0.0 0.00 0.00 0.00 32 1008.0
20260506205622 33 107 29.0 29.0 0.00 0.00 0.00 35 1007.0
20260506204621 33 104 27.4 29.0 0.00 0.00 0.00 35 1007.0
20260506203620 33 100 20.9 0.0 0.00 0.00 0.00 36 1007.0
20260506202620 33 100 20.9 0.0 0.00 0.00 0.00 35 1008.0
20260506201619 33 100 20.9 0.0 0.00 0.00 0.00 34 1008.0
20260506200618 34 100 20.9 0.0 0.00 0.00 0.00 34 1008.0
20260506195618 35 100 20.9 0.0 0.00 0.00 0.00 34 1008.0
20260506194617 35 100 20.9 0.0 0.00 0.00 0.00 34 1008.0
20260506193617 36 100 20.9 0.0 0.00 0.00 0.00 34 1008.0
20260506192616 36 100 20.9 0.0 0.00 0.00 0.00 34 1010.0
20260506191616 33 90 24.1 0.0 0.00 0.00 0.00 39 1010.0
20260506190615 33 90 24.1 0.0 0.00 0.00 0.00 39 1010.0
20260506185614 33 90 24.1 0.0 0.00 0.00 0.00 39 1009.0
20260506184614 33 90 25.7 0.0 0.00 0.00 0.00 39 1010.0
20260506183613 34 90 25.7 0.0 0.00 0.00 0.00 39 1010.0
20260506182613 32 70 17.7 0.0 0.00 0.00 0.00 46 1011.0
20260506181612 32 70 17.7 0.0 0.00 0.00 0.00 46 1011.0
20260506180611 32 70 17.7 0.0 0.00 0.00 0.00 46 1011.0
20260506175611 32 70 17.7 0.0 0.00 0.00 0.00 46 1011.0
20260506174610 33 70 17.7 0.0 0.00 0.00 0.00 46 1011.0
20260506173610 32 70 17.7 0.0 0.00 0.00 0.00 46 1011.0
20260506172609 31 80 20.9 0.0 0.00 0.00 0.00 48 1012.0
20260506171608 31 80 20.9 0.0 0.00 0.00 0.00 48 1012.0
20260506170608 31 80 20.9 0.0 0.00 0.00 0.00 48 1012.0
20260506165607 31 80 20.9 0.0 0.00 0.00 0.00 49 1012.0
20260506164607 31 80 20.9 0.0 0.00 0.00 0.00 49 1012.0
20260506163606 30 80 20.9 0.0 0.00 0.00 0.00 52 1012.0
20260506162605 31 80 20.9 0.0 0.00 0.00 0.00 52 1012.0
20260506161605 31 80 20.9 0.0 0.00 0.00 0.00 53 1012.0
20260506160605 31 80 20.9 0.0 0.00 0.00 0.00 54 1012.0
20260506155604 29 80 20.9 0.0 0.00 0.00 0.00 58 1012.0
20260506154603 30 80 20.9 0.0 0.00 0.00 0.00 58 1012.0
20260506153603 28 90 29.0 0.0 0.00 0.00 0.00 58 1012.0
20260506152603 28 90 29.0 0.0 0.00 0.00 0.00 58 1012.0
20260506151602 28 90 29.0 0.0 0.00 0.00 0.00 58 1012.0
20260506150602 29 90 29.0 0.0 0.00 0.00 0.00 58 1012.0
20260506145601 30 90 29.0 0.0 0.00 0.00 0.00 58 1012.0
20260506144600 30 90 29.0 0.0 0.00 0.00 0.00 58 1012.0
20260506143600 26 90 29.0 0.0 0.00 0.00 0.00 70 1012.0
20260506142559 27 86 24.1 32.2 0.00 0.00 0.00 70 1012.0
20260506141558 27 86 24.1 32.2 0.00 0.00 0.00 70 1012.0
20260506140558 26 110 14.5 0.0 0.00 0.00 0.00 70 1012.0
20260506135558 26 110 14.5 0.0 0.00 0.00 0.00 70 1012.0
20260506134557 26 110 14.5 0.0 0.00 0.00 0.00 70 1012.0
20260506133556 27 110 14.5 0.0 0.00 0.00 0.00 70 1012.0
20260506132556 27 110 14.5 0.0 0.00 0.00 0.00 70 1012.0
20260506131555 28 110 14.5 0.0 0.00 0.00 0.00 70 1012.0
20260506130555 25 80 6.4 0.0 0.00 0.00 0.00 76 1012.0
20260506125554 25 80 6.4 0.0 0.00 0.00 0.00 76 1012.0
20260506124554 24 110 12.9 0.0 0.00 0.00 0.00 75 1012.0
20260506123553 24 110 12.9 0.0 0.00 0.00 0.00 75 1012.0
20260506122553 24 110 12.9 0.0 0.00 0.00 0.00 74 1012.0
20260506121552 24 110 12.9 0.0 0.00 0.00 0.00 74 1012.0
20260506120552 24 110 12.9 0.0 0.00 0.00 0.00 73 1012.0
20260506115551 24 110 12.9 0.0 0.00 0.00 0.00 73 1012.0
20260506114551 24 110 12.9 0.0 0.00 0.00 0.00 73 1012.0
20260506113550 24 110 12.9 0.0 0.00 0.00 0.00 73 1012.0
20260506112550 24 110 12.9 0.0 0.00 0.00 0.00 73 1011.0